Regional Weather Roundup
Issued by NWS Jackson, KY

Home | Current Version | Previous Version | Graphics & Text | Print | Product List | Glossary On
Versions: 1 2 3 4 5 6 7 8 9 10 11 12 13 14 15 16 17 18 19 20 21 22 23 24 25 26 27
000
ASUS43 KJKL 261310
RWRJKL

EAST KENTUCKY HOURLY WEATHER ROUNDUP
NATIONAL WEATHER SERVICE JACKSON KY
900 AM EDT MON JUN 26 2017

NOTE: "FAIR" INDICATES FEW OR NO CLOUDS BELOW 12,000 FEET WITH
NO SIGNIFICANT WEATHER AND/OR OBSTRUCTIONS TO VISIBILITY.

* THESE REPORTS ARE NOT UNDER NWS QUALITY CONTROL AND MAY NOT
  REPORT WEATHER SUCH AS PRECIPITATION AND FOG.

KYZ079-080-083-085-087-088-110-112-115-119-120-261400
...EASTERN KENTUCKY...

CITY           SKY/WX    TMP DP  RH WIND       PRES   REMARKS
JACKSON        MOSUNNY   64  53  67 VRB5      30.20R
LONDON         CLOUDY    62  55  77 CALM      30.20S
SOMERSET*      SUNNY     61  59  94 CALM      30.22R
MONTICELLO*    CLOUDY    64  58  80 N9        30.22S
WILLIAMSBURG*  CLOUDY    57  57 100 CALM      30.21S
MIDDLESBORO*   CLOUDY    58  54  86 CALM      30.22S
HARLAN APT*    PTSUNNY   55  52  88 CALM      30.21F
PIKE CO APT*     N/A     62  53  71 SW3       30.19R
BIG SANDY APT* SUNNY     64  55  70 W5        30.18S
MOREHEAD APT*  SUNNY     63  52  67 NW5       30.20S HAZE
$$

KYZ035-036-041-042-044-050-067-078-099-261400
...CENTRAL KENTUCKY...

CITY           SKY/WX    TMP DP  RH WIND       PRES   REMARKS
MT STERLING*   SUNNY     64  52  63 N5        30.20S
FLEMING/MASON* SUNNY     62  52  71 NW6       30.19S
DANVILLE*      MOSUNNY   64  52  63 N5        30.22R
LEXINGTON      SUNNY     65  50  58 N7        30.20R
FRANKFORT      SUNNY     65  51  60 NW5       30.19R
LOUISVILLE     MOSUNNY   69  51  52 CALM      30.19S
LEBANON*         N/A    N/A N/A N/A MISG        N/A
GLASGOW*       MOSUNNY   67  52  58 N3        30.21R
BOWLING GREEN  MOSUNNY   70  54  56 VRB3      30.21R
$$

KYZ091>093-OHZ055-061-077-WVZ005-015-034-035-042-261400
...SOUTHERN OHIO/WEST VIRGINIA...

CITY           SKY/WX    TMP DP  RH WIND       PRES   REMARKS
COVINGTON      SUNNY     63  53  70 W6        30.17R
COLUMBUS       SUNNY     64  52  64 W10       30.11S
DAYTON         SUNNY     62  51  67 W12       30.15R
WILMINGTON     SUNNY     62  52  69 W8        30.15R
HUNTINGTON     SUNNY     66  53  63 VRB6      30.16R
CHARLESTON     SUNNY     65  55  70 SW6       30.14S
PINEVILLE*     SUNNY     60  54  82 MISG      30.24S
BECKLEY        SUNNY     62  50  64 W5        30.20R
BLUEFIELD      SUNNY     59  48  67 W6        30.22R
LOGAN CO APT*    N/A     63  55  77 CALM      30.18R
$$

VAZ002-007-008-TNZ017-027-036-066-071-261400
...SOUTHWEST VIRGINIA/EAST TENNESSEE...

CITY           SKY/WX    TMP DP  RH WIND       PRES   REMARKS
WISE*          MOSUNNY   63  48  59 CALM      30.24R
JONESVILLE*      N/A     61  54  77 CALM      30.23S
ABINGDON*      SUNNY     64  54  71 W3        30.22S
BRISTOL        MOSUNNY   62  55  77 CALM      30.21S
MORRISTOWN*    SUNNY     68  55  64 VRB5      30.19S
SEVIERVILLE*   SUNNY     64  54  68 NW3       30.20R
KNOXVILLE      PTSUNNY   62  58  86 S6        30.20R
LAFOLLETTE*    SUNNY     64  55  72 CALM      30.23S
OAK RIDGE      CLOUDY    63  55  75 CALM      30.21F
CROSSVILLE     CLOUDY    63  53  70 CALM      30.24R
NASHVILLE      CLOUDY    68  56  65 NW6       30.22R
$$

...KEY TO REMARKS...
VSB - VISIBILITY IN MILES
WCI - WIND CHILL INDEX
HX  - HEAT INDEX

$$




USA.gov is the U.S. government's official web portal to all federal, state and local government web resources and services.